N76SAM WIMM-WIII

Flight info

Callsign N76SAM
Flight time N/A
Altitude 37000
Route OMBES T5 BUNIK
Aircraft A20N/M-SDE2E3FGHIRWXY/LB1

Departure

Time 2026-04-28 06:11
Airport Kualanamu International Airport (WIMM)

Arrival

Time N/A
Airport Soekarno-Hatta International Airport (WIII)
Time Latitude Longitude Altitude Speed Heading
2026-04-28 06:10 3.62445 99.01749 4997 ft 260 kts 109°
2026-04-28 06:11 3.61851 99.03468 5000 ft 260 kts 109°
2026-04-28 06:11 3.61257 99.05177 5007 ft 260 kts 109°
2026-04-28 06:11 3.60661 99.06891 5003 ft 260 kts 109°
2026-04-28 06:11 3.60069 99.08598 5100 ft 261 kts 109°
2026-04-28 06:12 3.59477 99.10316 5786 ft 258 kts 109°
2026-04-28 06:12 3.59096 99.11425 6510 ft 252 kts 109°
2026-04-28 06:12 3.58525 99.13094 7322 ft 255 kts 109°
2026-04-28 06:12 3.57950 99.14786 8124 ft 258 kts 109°
2026-04-28 06:13 3.57293 99.16479 8938 ft 261 kts 116°
2026-04-28 06:13 3.56148 99.18623 10029 ft 266 kts 121°
2026-04-28 06:13 3.55501 99.19701 10590 ft 268 kts 122°
2026-04-28 06:13 3.54497 99.21287 11427 ft 271 kts 123°
2026-04-28 06:14 3.53449 99.22876 12275 ft 275 kts 124°
2026-04-28 06:14 3.52371 99.24471 13126 ft 279 kts 124°
2026-04-28 06:14 3.51281 99.26060 13977 ft 282 kts 125°
2026-04-28 06:14 3.50155 99.27689 14849 ft 286 kts 125°
2026-04-28 06:15 3.49012 99.29336 15739 ft 290 kts 125°
2026-04-28 06:15 3.47853 99.31005 16632 ft 294 kts 125°
2026-04-28 06:15 3.46678 99.32698 17535 ft 298 kts 125°
2026-04-28 06:15 3.45080 99.34999 18697 ft 304 kts 125°
2026-04-28 06:16 3.44277 99.36157 19262 ft 307 kts 125°
2026-04-28 06:16 3.43053 99.37922 20076 ft 311 kts 125°
2026-04-28 06:16 3.41812 99.39712 20875 ft 315 kts 125°
2026-04-28 06:16 3.40552 99.41531 21648 ft 319 kts 125°
2026-04-28 06:17 3.39279 99.43370 22397 ft 323 kts 125°
2026-04-28 06:17 3.37993 99.45229 23116 ft 327 kts 125°
2026-04-28 06:17 3.36691 99.47112 23819 ft 331 kts 125°
2026-04-28 06:18 3.34045 99.50942 25158 ft 338 kts 124°
2026-04-28 06:18 3.32686 99.52879 25796 ft 342 kts 130°
2026-04-28 06:18 3.30880 99.54418 26392 ft 344 kts 148°
2026-04-28 06:18 3.28792 99.55625 26989 ft 348 kts 153°
2026-04-28 06:19 3.26614 99.56715 27578 ft 351 kts 155°
2026-04-28 06:19 3.24407 99.57720 28138 ft 355 kts 157°
2026-04-28 06:19 3.22127 99.58690 28699 ft 358 kts 158°
2026-04-28 06:19 3.19806 99.59626 29242 ft 361 kts 159°
2026-04-28 06:20 3.17452 99.60543 29771 ft 364 kts 159°
2026-04-28 06:20 3.15075 99.61445 30283 ft 367 kts 160°
2026-04-28 06:20 3.12667 99.62341 30780 ft 371 kts 160°
2026-04-28 06:20 3.10237 99.63235 31270 ft 374 kts 160°
2026-04-28 06:21 3.07781 99.64131 31745 ft 377 kts 160°
2026-04-28 06:21 3.05307 99.65030 32203 ft 379 kts 160°
2026-04-28 06:21 3.02810 99.65935 32654 ft 382 kts 160°
2026-04-28 06:21 3.00298 99.66846 33092 ft 385 kts 160°
2026-04-28 06:22 2.97768 99.67764 33533 ft 388 kts 160°
2026-04-28 06:22 2.95219 99.68684 33934 ft 391 kts 160°
2026-04-28 06:22 2.92685 99.69587 34333 ft 393 kts 161°
2026-04-28 06:22 2.90091 99.70505 34731 ft 396 kts 161°
2026-04-28 06:23 2.87485 99.71426 35109 ft 399 kts 161°
2026-04-28 06:23 2.84863 99.72354 35484 ft 401 kts 161°
2026-04-28 06:23 2.82222 99.73291 35838 ft 404 kts 161°
2026-04-28 06:23 2.79569 99.74233 36205 ft 406 kts 161°
2026-04-28 06:24 2.76897 99.75184 36532 ft 409 kts 160°
2026-04-28 06:24 2.74227 99.76135 36794 ft 403 kts 160°
2026-04-28 06:24 2.71592 99.77076 36909 ft 403 kts 160°
2026-04-28 06:25 2.66221 99.78998 36985 ft 416 kts 160°
2026-04-28 06:25 2.60805 99.81038 37002 ft 414 kts 149°
2026-04-28 06:25 2.58511 99.82755 37028 ft 413 kts 137°
2026-04-28 06:26 2.56432 99.84755 37014 ft 415 kts 135°
2026-04-28 06:26 2.52488 99.88917 37004 ft 414 kts 132°
2026-04-28 06:27 2.48652 99.93202 37002 ft 413 kts 131°
2026-04-28 06:27 2.44867 99.97544 37002 ft 414 kts 131°
2026-04-28 06:28 2.41102 100.01923 37002 ft 415 kts 130°
2026-04-28 06:28 2.37362 100.06304 37000 ft 413 kts 130°
2026-04-28 06:29 2.33640 100.10680 37001 ft 414 kts 130°
2026-04-28 06:29 2.29896 100.15066 37001 ft 415 kts 132°
2026-04-28 06:30 2.25953 100.19268 37001 ft 414 kts 134°
2026-04-28 06:30 2.21956 100.23359 37000 ft 413 kts 135°
2026-04-28 06:31 2.17915 100.27452 37000 ft 414 kts 135°
2026-04-28 06:31 2.13857 100.31549 37000 ft 414 kts 135°
2026-04-28 06:32 2.09800 100.35640 37000 ft 413 kts 135°
2026-04-28 06:32 2.05746 100.39727 37000 ft 414 kts 135°
2026-04-28 06:33 2.01682 100.43822 37000 ft 415 kts 135°
2026-04-28 06:33 1.97643 100.47890 37000 ft 414 kts 135°
2026-04-28 06:34 1.93594 100.51968 37000 ft 413 kts 135°
2026-04-28 06:34 1.89536 100.56055 37001 ft 414 kts 135°
2026-04-28 06:35 1.85467 100.60153 37000 ft 414 kts 135°
2026-04-28 06:35 1.81412 100.64237 37000 ft 413 kts 135°
2026-04-28 06:36 1.77361 100.68316 37000 ft 414 kts 135°
2026-04-28 06:36 1.73325 100.72379 37001 ft 415 kts 135°
2026-04-28 06:37 1.69261 100.76470 37000 ft 414 kts 135°
2026-04-28 06:37 1.65208 100.80551 36999 ft 413 kts 135°